Terug naar catalogus

STARLINK-31975

ActiefCommunicatieVLEO
NORAD 59886·PAYLOAD·🇺🇸 United States

Gelanceerd May 28, 2024 vanaf Cape Canaveral Space Force Station

Loading…

Volgende Passages (komende 24 uur)

TLE

VersSource: CelesTrak SupGP

Epoch: Sep 14, 2026, 14:15 UTC

1 59886C 24100B   26257.59423611  .00037644  00000+0  13639-2 0  2570
2 59886  42.9994 138.5997 0001455 262.5840 217.9247 15.27548281    15

Volg STARLINK-31975 in realtime met AllMySat

Download on the App Store